Time,TemperatureF,DewpointF,PressureIn,WindDirection,WindDirectionDegrees,WindSpeedMPH,WindSpeedGustMPH,Humidity,HourlyPrecipIn,Conditions,Clouds,dailyrainin,SoftwareType,DateUTC
2013-04-17 00:01:00,49.5,19.1,29.96,NNW,337,6.0,18.0,30,0.00,,,0.00,WUHU216DAVISVP2,2013-04-17 07:01:00,
2013-04-17 00:06:00,49.4,19.0,29.97,NNW,340,10.0,17.0,30,0.00,,,0.00,WUHU216DAVISVP2,2013-04-17 07:06:00,
2013-04-17 00:11:00,49.2,18.8,29.97,NW,309,8.0,15.0,30,0.00,,,0.00,WUHU216DAVISVP2,2013-04-17 07:11:00,
2013-04-17 00:17:00,49.1,18.8,29.97,NW,311,10.0,14.0,30,0.00,,,0.00,WUHU216DAVISVP2,2013-04-17 07:17:00,
2013-04-17 00:22:00,49.1,18.8,29.97,NNW,338,9.0,14.0,30,0.00,,,0.00,WUHU216DAVISVP2,2013-04-17 07:22:00,
2013-04-17 00:27:00,48.8,19.3,29.97,NNW,333,6.0,14.0,31,0.00,,,0.00,WUHU216DAVISVP2,2013-04-17 07:27:00,
2013-04-17 00:32:00,48.6,19.1,29.97,NW,324,9.0,14.0,31,0.00,,,0.00,WUHU216DAVISVP2,2013-04-17 07:32:00,
2013-04-17 00:37:00,48.7,19.2,29.98,NW,311,6.0,14.0,31,0.00,,,0.00,WUHU216DAVISVP2,2013-04-17 07:37:00,
2013-04-17 00:42:00,48.6,19.1,29.98,WNW,302,5.0,14.0,31,0.00,,,0.00,WUHU216DAVISVP2,2013-04-17 07:42:00,
2013-04-17 00:47:00,48.4,18.9,29.98,NW,307,5.0,14.0,31,0.00,,,0.00,WUHU216DAVISVP2,2013-04-17 07:47:00,
2013-04-17 00:52:00,48.3,18.8,29.98,NW,315,5.0,14.0,31,0.00,,,0.00,WUHU216DAVISVP2,2013-04-17 07:52:00,
2013-04-17 00:57:00,48.1,18.6,29.98,NW,319,5.0,9.0,31,0.00,,,0.00,WUHU216DAVISVP2,2013-04-17 07:57:00,
2013-04-17 01:02:00,47.8,19.1,29.98,NW,319,4.0,9.0,32,0.00,,,0.00,WUHU216DAVISVP2,2013-04-17 08:02:00,
2013-04-17 01:07:00,47.3,18.7,29.98,North,355,4.0,9.0,32,0.00,,,0.00,WUHU216DAVISVP2,2013-04-17 08:07:00,
2013-04-17 01:12:00,47.3,19.4,29.98,North,355,4.0,7.0,33,0.00,,,0.00,WUHU216DAVISVP2,2013-04-17 08:12:00,
2013-04-17 01:17:00,47.3,19.4,29.98,NNW,333,4.0,8.0,33,0.00,,,0.00,WUHU216DAVISVP2,2013-04-17 08:17:00,
2013-04-17 01:22:00,47.3,19.4,29.98,NW,324,6.0,8.0,33,0.00,,,0.00,WUHU216DAVISVP2,2013-04-17 08:22:00,
2013-04-17 01:28:00,47.4,19.5,29.98,NNW,329,6.0,8.0,33,0.00,,,0.00,WUHU216DAVISVP2,2013-04-17 08:28:00,
2013-04-17 01:33:00,47.4,18.8,29.99,NNW,329,4.0,8.0,32,0.00,,,0.00,WUHU216DAVISVP2,2013-04-17 08:33:00,
2013-04-17 01:38:00,47.2,19.3,29.99,NNW,330,4.0,8.0,33,0.00,,,0.00,WUHU216DAVISVP2,2013-04-17 08:38:00,
2013-04-17 01:43:00,46.9,19.0,29.99,NNW,336,4.0,8.0,33,0.00,,,0.00,WUHU216DAVISVP2,2013-04-17 08:43:00,
2013-04-17 01:48:00,46.7,18.9,29.99,NNW,336,4.0,6.0,33,0.00,,,0.00,WUHU216DAVISVP2,2013-04-17 08:48:00,
2013-04-17 01:53:00,46.5,18.7,29.99,NNW,346,3.0,7.0,33,0.00,,,0.00,WUHU216DAVISVP2,2013-04-17 08:53:00,
2013-04-17 01:58:00,46.3,19.2,29.99,NNW,347,4.0,7.0,34,0.00,,,0.00,WUHU216DAVISVP2,2013-04-17 08:58:00,
2013-04-17 02:03:00,46.0,18.9,29.99,NNW,348,5.0,7.0,34,0.00,,,0.00,WUHU216DAVISVP2,2013-04-17 09:03:00,
2013-04-17 02:08:00,45.6,18.6,29.99,NNW,348,4.0,7.0,34,0.00,,,0.00,WUHU216DAVISVP2,2013-04-17 09:08:00,
2013-04-17 02:13:00,45.3,19.0,29.99,North,5,5.0,7.0,35,0.00,,,0.00,WUHU216DAVISVP2,2013-04-17 09:13:00,
2013-04-17 02:18:00,45.2,18.9,29.99,NNE,12,4.0,7.0,35,0.00,,,0.00,WUHU216DAVISVP2,2013-04-17 09:18:00,
2013-04-17 02:23:00,45.1,18.8,29.99,North,11,2.0,7.0,35,0.00,,,0.00,WUHU216DAVISVP2,2013-04-17 09:23:00,
2013-04-17 02:28:00,44.9,18.7,29.99,North,11,2.0,7.0,35,0.00,,,0.00,WUHU216DAVISVP2,2013-04-17 09:28:00,
2013-04-17 02:35:00,44.7,18.5,29.99,NNE,12,3.0,5.0,35,0.00,,,0.00,WUHU216DAVISVP2,2013-04-17 09:35:00,
2013-04-17 02:40:00,44.5,18.3,29.99,North,11,3.0,5.0,35,0.00,,,0.00,WUHU216DAVISVP2,2013-04-17 09:40:00,
2013-04-17 02:45:00,44.4,18.2,29.99,North,11,2.0,5.0,35,0.00,,,0.00,WUHU216DAVISVP2,2013-04-17 09:45:00,
2013-04-17 02:50:00,44.1,17.9,30.00,North,11,1.0,5.0,35,0.00,,,0.00,WUHU216DAVISVP2,2013-04-17 09:50:00,
2013-04-17 02:56:00,43.8,18.3,29.99,North,11,0.0,5.0,36,0.00,,,0.00,WUHU216DAVISVP2,2013-04-17 09:56:00,
2013-04-17 03:01:00,43.5,17.4,30.00,North,11,3.0,4.0,35,0.00,,,0.00,WUHU216DAVISVP2,2013-04-17 10:01:00,
2013-04-17 03:06:00,42.8,17.4,29.99,North,11,0.0,4.0,36,0.00,,,0.00,WUHU216DAVISVP2,2013-04-17 10:06:00,
2013-04-17 03:11:00,42.4,17.7,29.99,North,11,0.0,4.0,37,0.00,,,0.00,WUHU216DAVISVP2,2013-04-17 10:11:00,
2013-04-17 03:16:00,42.4,17.7,29.99,North,11,1.0,4.0,37,0.00,,,0.00,WUHU216DAVISVP2,2013-04-17 10:16:00,
2013-04-17 03:21:00,42.5,17.8,29.99,North,11,0.0,4.0,37,0.00,,,0.00,WUHU216DAVISVP2,2013-04-17 10:21:00,
2013-04-17 03:26:00,42.7,18.0,29.99,North,11,0.0,2.0,37,0.00,,,0.00,WUHU216DAVISVP2,2013-04-17 10:26:00,
2013-04-17 03:31:00,42.2,17.5,29.99,NNE,12,2.0,2.0,37,0.00,,,0.00,WUHU216DAVISVP2,2013-04-17 10:31:00,
2013-04-17 03:36:00,42.2,17.5,30.00,North,11,0.0,3.0,37,0.00,,,0.00,WUHU216DAVISVP2,2013-04-17 10:36:00,
2013-04-17 03:42:00,42.5,17.8,29.99,NNE,12,3.0,4.0,37,0.00,,,0.00,WUHU216DAVISVP2,2013-04-17 10:42:00,
2013-04-17 03:47:00,42.9,17.5,30.00,North,11,1.0,4.0,36,0.00,,,0.00,WUHU216DAVISVP2,2013-04-17 10:47:00,
2013-04-17 03:52:00,42.8,18.1,30.00,NNE,31,7.0,7.0,37,0.00,,,0.00,WUHU216DAVISVP2,2013-04-17 10:52:00,
2013-04-17 03:57:00,42.7,18.0,30.00,NNE,30,3.0,7.0,37,0.00,,,0.00,WUHU216DAVISVP2,2013-04-17 10:57:00,
2013-04-17 04:02:00,42.5,17.8,30.00,NNE,30,4.0,7.0,37,0.00,,,0.00,WUHU216DAVISVP2,2013-04-17 11:02:00,
2013-04-17 04:07:00,42.3,17.6,30.00,NNE,30,0.0,7.0,37,0.00,,,0.00,WUHU216DAVISVP2,2013-04-17 11:07:00,
2013-04-17 04:12:00,41.5,17.5,30.00,NNE,30,2.0,7.0,38,0.00,,,0.00,WUHU216DAVISVP2,2013-04-17 11:12:00,
2013-04-17 04:17:00,41.0,17.7,30.00,NNE,30,0.0,5.0,39,0.00,,,0.00,WUHU216DAVISVP2,2013-04-17 11:17:00,
2013-04-17 04:22:00,41.0,17.7,30.00,NNE,30,3.0,4.0,39,0.00,,,0.00,WUHU216DAVISVP2,2013-04-17 11:22:00,
2013-04-17 04:27:00,41.1,17.8,30.00,NNE,30,2.0,4.0,39,0.00,,,0.00,WUHU216DAVISVP2,2013-04-17 11:27:00,
2013-04-17 04:32:00,41.4,18.1,30.01,West,279,3.0,5.0,39,0.00,,,0.00,WUHU216DAVISVP2,2013-04-17 11:32:00,
2013-04-17 04:37:00,41.1,17.2,30.01,West,279,0.0,5.0,38,0.00,,,0.00,WUHU216DAVISVP2,2013-04-17 11:37:00,
2013-04-17 04:43:00,40.9,17.6,30.01,West,279,0.0,5.0,39,0.00,,,0.00,WUHU216DAVISVP2,2013-04-17 11:43:00,
2013-04-17 04:48:00,40.9,17.0,30.01,West,279,0.0,5.0,38,0.00,,,0.00,WUHU216DAVISVP2,2013-04-17 11:48:00,
2013-04-17 04:53:00,41.0,17.1,30.01,West,279,0.0,2.0,38,0.00,,,0.00,WUHU216DAVISVP2,2013-04-17 11:53:00,
2013-04-17 04:58:00,41.1,16.1,30.01,West,279,0.0,2.0,36,0.00,,,0.00,WUHU216DAVISVP2,2013-04-17 11:58:00,
2013-04-17 05:03:00,40.9,16.6,30.01,West,279,0.0,2.0,37,0.00,,,0.00,WUHU216DAVISVP2,2013-04-17 12:03:00,
2013-04-17 05:08:00,40.6,16.3,30.02,West,279,0.0,2.0,37,0.00,,,0.00,WUHU216DAVISVP2,2013-04-17 12:08:00,
2013-04-17 05:13:00,40.0,15.6,30.02,West,279,1.0,3.0,37,0.00,,,0.00,WUHU216DAVISVP2,2013-04-17 12:13:00,
2013-04-17 05:18:00,39.5,15.8,30.02,West,279,2.0,3.0,38,0.00,,,0.00,WUHU216DAVISVP2,2013-04-17 12:18:00,
2013-04-17 05:23:00,39.9,15.5,30.02,West,279,0.0,3.0,37,0.00,,,0.00,WUHU216DAVISVP2,2013-04-17 12:23:00,
2013-04-17 05:28:00,38.9,15.2,30.03,West,279,0.0,3.0,38,0.00,,,0.00,WUHU216DAVISVP2,2013-04-17 12:28:00,
2013-04-17 05:33:00,38.0,15.0,30.03,West,279,0.0,3.0,39,0.00,,,0.00,WUHU216DAVISVP2,2013-04-17 12:33:00,
2013-04-17 05:38:00,36.7,13.8,30.03,West,279,0.0,4.0,39,0.00,,,0.00,WUHU216DAVISVP2,2013-04-17 12:38:00,
2013-04-17 05:44:00,36.0,15.1,30.03,West,279,1.0,4.0,42,0.00,,,0.00,WUHU216DAVISVP2,2013-04-17 12:44:00,
2013-04-17 05:49:00,36.1,15.7,30.03,NNW,327,3.0,6.0,43,0.00,,,0.00,WUHU216DAVISVP2,2013-04-17 12:49:00,
2013-04-17 05:54:00,36.8,15.8,30.03,NNW,327,0.0,6.0,42,0.00,,,0.00,WUHU216DAVISVP2,2013-04-17 12:54:00,
2013-04-17 05:59:00,37.3,15.2,30.04,NNW,327,0.0,6.0,40,0.00,,,0.00,WUHU216DAVISVP2,2013-04-17 12:59:00,
2013-04-17 06:04:00,37.1,14.8,30.04,NNW,327,0.0,6.0,40,0.00,,,0.00,WUHU216DAVISVP2,2013-04-17 13:04:00,
2013-04-17 06:09:00,36.7,15.0,30.04,NNW,327,4.0,5.0,41,0.00,,,0.00,WUHU216DAVISVP2,2013-04-17 13:09:00,
2013-04-17 06:14:00,36.7,15.6,30.04,NNW,327,4.0,6.0,42,0.00,,,0.00,WUHU216DAVISVP2,2013-04-17 13:14:00,
2013-04-17 06:19:00,37.3,15.6,30.05,NNW,329,7.0,8.0,41,0.00,,,0.00,WUHU216DAVISVP2,2013-04-17 13:19:00,
2013-04-17 06:24:00,37.0,14.7,30.05,NNW,331,5.0,8.0,40,0.00,,,0.00,WUHU216DAVISVP2,2013-04-17 13:24:00,
2013-04-17 06:29:00,36.9,14.0,30.05,NNW,331,3.0,8.0,39,0.00,,,0.00,WUHU216DAVISVP2,2013-04-17 13:29:00,
2013-04-17 06:34:00,37.0,16.0,30.05,NNW,331,2.0,8.0,42,0.00,,,0.00,WUHU216DAVISVP2,2013-04-17 13:34:00,
2013-04-17 06:39:00,36.8,15.8,30.06,NNW,331,0.0,6.0,42,0.00,,,0.00,WUHU216DAVISVP2,2013-04-17 13:39:00,
2013-04-17 06:45:00,36.8,15.8,30.06,NW,321,0.0,5.0,42,0.00,,,0.00,WUHU216DAVISVP2,2013-04-17 13:45:00,
2013-04-17 06:50:00,37.2,16.6,30.06,NW,321,0.0,5.0,43,0.00,,,0.00,WUHU216DAVISVP2,2013-04-17 13:50:00,
2013-04-17 06:55:00,37.8,16.6,30.07,NW,321,1.0,3.0,42,0.00,,,0.00,WUHU216DAVISVP2,2013-04-17 13:55:00,
2013-04-17 07:00:00,38.6,16.1,30.07,NW,321,3.0,5.0,40,0.00,,,0.00,WUHU216DAVISVP2,2013-04-17 14:00:00,
2013-04-17 07:05:00,39.4,17.5,30.07,NNW,347,3.0,5.0,41,0.00,,,0.00,WUHU216DAVISVP2,2013-04-17 14:05:00,
2013-04-17 07:10:00,40.5,17.9,30.07,NNW,347,0.0,5.0,40,0.00,,,0.00,WUHU216DAVISVP2,2013-04-17 14:10:00,
2013-04-17 07:15:00,41.6,18.3,30.08,NNW,347,1.0,5.0,39,0.00,,,0.00,WUHU216DAVISVP2,2013-04-17 14:15:00,
2013-04-17 07:20:00,42.8,18.3,30.08,NNW,347,0.0,4.0,37,0.00,,,0.00,WUHU216DAVISVP2,2013-04-17 14:20:00,
2013-04-17 07:25:00,43.5,17.6,30.08,NNW,346,3.0,5.0,35,0.00,,,0.00,WUHU216DAVISVP2,2013-04-17 14:25:00,
2013-04-17 07:30:00,44.2,17.6,30.08,NNW,346,0.0,5.0,34,0.00,,,0.00,WUHU216DAVISVP2,2013-04-17 14:30:00,
2013-04-17 07:35:00,44.8,18.8,30.09,NNW,346,0.0,5.0,35,0.00,,,0.00,WUHU216DAVISVP2,2013-04-17 14:35:00,
2013-04-17 07:40:00,45.3,17.1,30.09,NNW,346,1.0,5.0,32,0.00,,,0.00,WUHU216DAVISVP2,2013-04-17 14:40:00,
2013-04-17 07:46:00,45.9,16.2,30.09,NNW,346,2.0,4.0,30,0.00,,,0.00,WUHU216DAVISVP2,2013-04-17 14:46:00,
2013-04-17 07:51:00,46.7,15.9,30.09,West,273,3.0,4.0,29,0.00,,,0.00,WUHU216DAVISVP2,2013-04-17 14:51:00,
2013-04-17 07:56:00,47.4,14.0,30.09,West,273,0.0,4.0,26,0.00,,,0.00,WUHU216DAVISVP2,2013-04-17 14:56:00,
2013-04-17 08:01:00,48.5,14.1,30.09,West,273,0.0,4.0,25,0.00,,,0.00,WUHU216DAVISVP2,2013-04-17 15:01:00,
2013-04-17 08:06:00,49.8,12.4,30.09,North,351,4.0,6.0,22,0.00,,,0.00,WUHU216DAVISVP2,2013-04-17 15:06:00,
2013-04-17 08:11:00,50.2,12.7,30.10,North,9,9.0,10.0,22,0.00,,,0.00,WUHU216DAVISVP2,2013-04-17 15:11:00,
2013-04-17 08:17:00,50.3,12.8,30.09,North,351,9.0,11.0,22,0.00,,,0.00,WUHU216DAVISVP2,2013-04-17 15:17:00,
2013-04-17 08:22:00,50.6,12.0,30.09,North,5,9.0,17.0,21,0.00,,,0.00,WUHU216DAVISVP2,2013-04-17 15:22:00,
2013-04-17 08:27:00,51.2,11.4,30.10,NNE,16,11.0,17.0,20,0.00,,,0.00,WUHU216DAVISVP2,2013-04-17 15:27:00,
2013-04-17 08:32:00,51.4,11.6,30.10,North,360,9.0,17.0,20,0.00,,,0.00,WUHU216DAVISVP2,2013-04-17 15:32:00,
2013-04-17 08:37:00,51.7,10.7,30.10,NNE,31,8.0,17.0,19,0.00,,,0.00,WUHU216DAVISVP2,2013-04-17 15:37:00,
2013-04-17 08:42:00,51.8,10.8,30.10,NNE,15,5.0,16.0,19,0.00,,,0.00,WUHU216DAVISVP2,2013-04-17 15:42:00,
2013-04-17 08:47:00,52.1,11.0,30.09,NNE,24,12.0,16.0,19,0.00,,,0.00,WUHU216DAVISVP2,2013-04-17 15:47:00,
2013-04-17 08:52:00,52.2,11.1,30.09,North,5,6.0,16.0,19,0.00,,,0.00,WUHU216DAVISVP2,2013-04-17 15:52:00,
2013-04-17 08:57:00,52.5,10.1,30.09,NNW,336,7.0,22.0,18,0.00,,,0.00,WUHU216DAVISVP2,2013-04-17 15:57:00,
2013-04-17 09:02:00,52.6,9.0,30.10,NNW,335,16.0,23.0,17,0.00,,,0.00,WUHU216DAVISVP2,2013-04-17 16:02:00,
2013-04-17 09:07:00,52.6,10.2,30.10,North,360,21.0,23.0,18,0.00,,,0.00,WUHU216DAVISVP2,2013-04-17 16:07:00,
2013-04-17 09:13:00,52.8,10.4,30.10,NNE,15,19.0,26.0,18,0.00,,,0.00,WUHU216DAVISVP2,2013-04-17 16:13:00,
2013-04-17 09:18:00,53.1,9.4,30.10,North,350,18.0,26.0,17,0.00,,,0.00,WUHU216DAVISVP2,2013-04-17 16:18:00,
2013-04-17 09:23:00,53.0,10.6,30.10,North,5,21.0,29.0,18,0.00,,,0.00,WUHU216DAVISVP2,2013-04-17 16:23:00,
2013-04-17 09:28:00,52.8,10.4,30.10,North,5,21.0,29.0,18,0.00,,,0.00,WUHU216DAVISVP2,2013-04-17 16:28:00,
2013-04-17 09:33:00,53.4,10.9,30.10,North,5,16.0,29.0,18,0.00,,,0.00,WUHU216DAVISVP2,2013-04-17 16:33:00,
2013-04-17 09:38:00,53.1,10.6,30.10,North,355,18.0,29.0,18,0.00,,,0.00,WUHU216DAVISVP2,2013-04-17 16:38:00,
2013-04-17 09:43:00,53.5,9.7,30.10,NNW,348,19.0,28.0,17,0.00,,,0.00,WUHU216DAVISVP2,2013-04-17 16:43:00,
2013-04-17 09:48:00,53.5,9.7,30.10,NNE,21,22.0,28.0,17,0.00,,,0.00,WUHU216DAVISVP2,2013-04-17 16:48:00,
2013-04-17 09:53:00,53.4,8.3,30.10,NNW,345,12.0,28.0,16,0.00,,,0.00,WUHU216DAVISVP2,2013-04-17 16:53:00,
2013-04-17 09:58:00,53.4,9.6,30.10,NNW,341,17.0,27.0,17,0.00,,,0.00,WUHU216DAVISVP2,2013-04-17 16:58:00,
2013-04-17 10:03:00,54.2,8.9,30.10,North,11,20.0,26.0,16,0.00,,,0.00,WUHU216DAVISVP2,2013-04-17 17:03:00,
2013-04-17 10:08:00,54.4,7.6,30.10,NNW,337,9.0,25.0,15,0.00,,,0.00,WUHU216DAVISVP2,2013-04-17 17:08:00,
2013-04-17 10:13:00,54.7,9.3,30.10,North,355,14.0,27.0,16,0.00,,,0.00,WUHU216DAVISVP2,2013-04-17 17:13:00,
2013-04-17 10:19:00,54.7,7.9,30.10,North,5,17.0,29.0,15,0.00,,,0.00,WUHU216DAVISVP2,2013-04-17 17:19:00,
2013-04-17 10:24:00,55.0,8.1,30.10,NNW,347,12.0,29.0,15,0.00,,,0.00,WUHU216DAVISVP2,2013-04-17 17:24:00,
2013-04-17 10:29:00,55.2,6.7,30.10,North,360,18.0,29.0,14,0.00,,,0.00,WUHU216DAVISVP2,2013-04-17 17:29:00,
2013-04-17 10:34:00,55.4,6.9,30.10,NNE,18,8.0,29.0,14,0.00,,,0.00,WUHU216DAVISVP2,2013-04-17 17:34:00,
2013-04-17 10:39:00,56.0,7.4,30.10,NNE,26,18.0,28.0,14,0.00,,,0.00,WUHU216DAVISVP2,2013-04-17 17:39:00,
2013-04-17 10:44:00,56.3,7.6,30.09,NNE,20,23.0,28.0,14,0.00,,,0.00,WUHU216DAVISVP2,2013-04-17 17:44:00,
2013-04-17 10:49:00,56.0,7.4,30.09,NNE,15,21.0,27.0,14,0.00,,,0.00,WUHU216DAVISVP2,2013-04-17 17:49:00,
2013-04-17 10:54:00,56.0,5.7,30.09,NNE,32,14.0,29.0,13,0.00,,,0.00,WUHU216DAVISVP2,2013-04-17 17:54:00,
2013-04-17 10:59:00,56.5,6.1,30.09,NNW,344,14.0,29.0,13,0.00,,,0.00,WUHU216DAVISVP2,2013-04-17 17:59:00,
2013-04-17 11:04:00,56.8,4.5,30.09,North,11,17.0,29.0,12,0.00,,,0.00,WUHU216DAVISVP2,2013-04-17 18:04:00,
2013-04-17 11:09:00,56.6,4.5,30.09,NNE,16,20.0,26.0,12,0.00,,,0.00,WUHU216DAVISVP2,2013-04-17 18:09:00,
2013-04-17 11:14:00,57.0,4.8,30.09,NNE,15,17.0,27.0,12,0.00,,,0.00,WUHU216DAVISVP2,2013-04-17 18:14:00,
2013-04-17 11:20:00,57.0,4.7,30.09,NNE,21,12.0,27.0,12,0.00,,,0.00,WUHU216DAVISVP2,2013-04-17 18:20:00,
2013-04-17 11:25:00,56.6,4.4,30.09,NE,35,14.0,27.0,12,0.00,,,0.00,WUHU216DAVISVP2,2013-04-17 18:25:00,
2013-04-17 11:30:00,57.0,4.7,30.09,NE,38,16.0,27.0,12,0.00,,,0.00,WUHU216DAVISVP2,2013-04-17 18:30:00,
2013-04-17 11:35:00,56.6,4.4,30.09,NE,47,4.0,25.0,12,0.00,,,0.00,WUHU216DAVISVP2,2013-04-17 18:35:00,
2013-04-17 11:40:00,57.5,3.3,30.08,NNE,16,13.0,25.0,11,0.00,,,0.00,WUHU216DAVISVP2,2013-04-17 18:40:00,
2013-04-17 11:45:00,57.5,3.3,30.08,NNE,21,12.0,25.0,11,0.00,,,0.00,WUHU216DAVISVP2,2013-04-17 18:45:00,
2013-04-17 11:50:00,57.6,1.1,30.08,North,355,7.0,22.0,10,0.00,,,0.00,WUHU216DAVISVP2,2013-04-17 18:50:00,
2013-04-17 11:55:00,58.3,1.7,30.08,NNE,17,20.0,22.0,10,0.00,,,0.00,WUHU216DAVISVP2,2013-04-17 18:55:00,
2013-04-17 12:00:00,57.8,1.3,30.08,North,349,6.0,26.0,10,0.00,,,0.00,WUHU216DAVISVP2,2013-04-17 19:00:00,
2013-04-17 12:05:00,57.6,1.1,30.08,ENE,65,7.0,26.0,10,0.00,,,0.00,WUHU216DAVISVP2,2013-04-17 19:05:00,
2013-04-17 12:11:00,58.1,-0.8,30.08,NNE,14,13.0,26.0,9,0.00,,,0.00,WUHU216DAVISVP2,2013-04-17 19:11:00,
2013-04-17 12:16:00,58.5,1.8,30.08,North,355,11.0,22.0,10,0.00,,,0.00,WUHU216DAVISVP2,2013-04-17 19:16:00,
2013-04-17 12:21:00,58.3,1.7,30.08,NE,42,11.0,23.0,10,0.00,,,0.00,WUHU216DAVISVP2,2013-04-17 19:21:00,
2013-04-17 12:26:00,58.3,-0.6,30.07,NE,35,12.0,23.0,9,0.00,,,0.00,WUHU216DAVISVP2,2013-04-17 19:26:00,
2013-04-17 12:31:00,58.8,-0.3,30.07,NNW,337,11.0,23.0,9,0.00,,,0.00,WUHU216DAVISVP2,2013-04-17 19:31:00,
2013-04-17 12:36:00,58.8,-0.3,30.07,NNE,24,13.0,23.0,9,0.00,,,0.00,WUHU216DAVISVP2,2013-04-17 19:36:00,
2013-04-17 12:41:00,58.8,-0.3,30.08,NNE,15,6.0,21.0,9,0.00,,,0.00,WUHU216DAVISVP2,2013-04-17 19:41:00,
2013-04-17 12:46:00,59.1,0.0,30.07,NNE,29,9.0,22.0,9,0.00,,,0.00,WUHU216DAVISVP2,2013-04-17 19:46:00,
2013-04-17 12:51:00,59.1,0.0,30.07,North,360,10.0,22.0,9,0.00,,,0.00,WUHU216DAVISVP2,2013-04-17 19:51:00,
2013-04-17 12:56:00,59.4,0.2,30.07,NNW,340,9.0,22.0,9,0.00,,,0.00,WUHU216DAVISVP2,2013-04-17 19:56:00,
2013-04-17 13:01:00,59.4,0.2,30.07,NNW,344,5.0,21.0,9,0.00,,,0.00,WUHU216DAVISVP2,2013-04-17 20:01:00,
2013-04-17 13:07:00,59.5,0.3,30.07,NNE,30,8.0,21.0,9,0.00,,,0.00,WUHU216DAVISVP2,2013-04-17 20:07:00,
2013-04-17 13:12:00,59.4,0.2,30.06,WNW,291,6.0,22.0,9,0.00,,,0.00,WUHU216DAVISVP2,2013-04-17 20:12:00,
2013-04-17 13:17:00,59.7,0.4,30.07,NNE,14,14.0,22.0,9,0.00,,,0.00,WUHU216DAVISVP2,2013-04-17 20:17:00,
2013-04-17 13:22:00,60.0,-1.8,30.07,NNE,13,12.0,22.0,8,0.00,,,0.00,WUHU216DAVISVP2,2013-04-17 20:22:00,
2013-04-17 13:27:00,59.6,-2.1,30.07,North,355,1.0,22.0,8,0.00,,,0.00,WUHU216DAVISVP2,2013-04-17 20:27:00,
2013-04-17 13:32:00,60.0,0.7,30.07,North,360,11.0,21.0,9,0.00,,,0.00,WUHU216DAVISVP2,2013-04-17 20:32:00,
2013-04-17 13:37:00,59.6,0.4,30.07,ENE,59,4.0,21.0,9,0.00,,,0.00,WUHU216DAVISVP2,2013-04-17 20:37:00,
2013-04-17 13:42:00,59.8,0.5,30.07,NW,325,2.0,14.0,9,0.00,,,0.00,WUHU216DAVISVP2,2013-04-17 20:42:00,
2013-04-17 13:47:00,60.6,1.1,30.07,NNE,14,9.0,14.0,9,0.00,,,0.00,WUHU216DAVISVP2,2013-04-17 20:47:00,
2013-04-17 13:52:00,60.9,1.3,30.06,NW,305,9.0,13.0,9,0.00,,,0.00,WUHU216DAVISVP2,2013-04-17 20:52:00,
2013-04-17 13:57:00,60.5,1.0,30.07,WNW,290,5.0,13.0,9,0.00,,,0.00,WUHU216DAVISVP2,2013-04-17 20:57:00,
2013-04-17 14:02:00,60.5,1.0,30.06,SW,234,3.0,13.0,9,0.00,,,0.00,WUHU216DAVISVP2,2013-04-17 21:02:00,
2013-04-17 14:08:00,61.2,1.6,30.06,West,260,0.0,13.0,9,0.00,,,0.00,WUHU216DAVISVP2,2013-04-17 21:08:00,
2013-04-17 14:13:00,61.3,1.6,30.06,NNE,17,3.0,13.0,9,0.00,,,0.00,WUHU216DAVISVP2,2013-04-17 21:13:00,
2013-04-17 14:18:00,61.6,1.9,30.06,North,351,9.0,11.0,9,0.00,,,0.00,WUHU216DAVISVP2,2013-04-17 21:18:00,
2013-04-17 14:23:00,61.5,1.8,30.06,NE,41,9.0,14.0,9,0.00,,,0.00,WUHU216DAVISVP2,2013-04-17 21:23:00,
2013-04-17 14:28:00,61.3,1.6,30.06,North,5,10.0,14.0,9,0.00,,,0.00,WUHU216DAVISVP2,2013-04-17 21:28:00,
2013-04-17 14:33:00,61.3,1.6,30.06,NE,40,3.0,14.0,9,0.00,,,0.00,WUHU216DAVISVP2,2013-04-17 21:33:00,
2013-04-17 14:38:00,62.1,-0.3,30.05,NNE,21,0.0,14.0,8,0.00,,,0.00,WUHU216DAVISVP2,2013-04-17 21:38:00,
2013-04-17 14:43:00,62.5,2.6,30.06,NNE,33,8.0,13.0,9,0.00,,,0.00,WUHU216DAVISVP2,2013-04-17 21:43:00,
2013-04-17 14:48:00,62.1,0.0,30.05,North,355,6.0,12.0,8,0.00,,,0.00,WUHU216DAVISVP2,2013-04-17 21:48:00,
2013-04-17 14:53:00,62.4,2.7,30.05,NNW,342,8.0,12.0,9,0.00,,,0.00,WUHU216DAVISVP2,2013-04-17 21:53:00,
2013-04-17 14:58:00,61.7,-0.3,30.05,WNW,293,3.0,13.0,8,0.00,,,0.00,WUHU216DAVISVP2,2013-04-17 21:58:00,
2013-04-17 15:03:00,61.7,-0.3,30.05,NNE,23,4.0,13.0,8,0.00,,,0.00,WUHU216DAVISVP2,2013-04-17 22:03:00,
2013-04-17 15:08:00,61.9,2.1,30.05,NNW,336,10.0,17.0,9,0.00,,,0.00,WUHU216DAVISVP2,2013-04-17 22:08:00,
2013-04-17 15:14:00,61.9,2.1,30.05,NNW,327,7.0,17.0,9,0.00,,,0.00,WUHU216DAVISVP2,2013-04-17 22:14:00,
2013-04-17 15:19:00,62.3,2.4,30.05,North,355,11.0,17.0,9,0.00,,,0.00,WUHU216DAVISVP2,2013-04-17 22:19:00,
2013-04-17 15:24:00,62.2,0.0,30.05,NNW,330,9.0,17.0,8,0.00,,,0.00,WUHU216DAVISVP2,2013-04-17 22:24:00,
2013-04-17 15:29:00,62.0,-0.1,30.05,North,355,5.0,13.0,8,0.00,,,0.00,WUHU216DAVISVP2,2013-04-17 22:29:00,
2013-04-17 15:34:00,62.5,0.0,30.04,WNW,290,6.0,13.0,8,0.00,,,0.00,WUHU216DAVISVP2,2013-04-17 22:34:00,
2013-04-17 15:39:00,62.5,2.6,30.04,NNW,334,6.0,12.0,9,0.00,,,0.00,WUHU216DAVISVP2,2013-04-17 22:39:00,
2013-04-17 15:44:00,62.5,2.6,30.04,North,355,2.0,12.0,9,0.00,,,0.00,WUHU216DAVISVP2,2013-04-17 22:44:00,
2013-04-17 15:49:00,62.8,0.5,30.04,West,261,4.0,11.0,8,0.00,,,0.00,WUHU216DAVISVP2,2013-04-17 22:49:00,
2013-04-17 15:54:00,63.1,0.5,30.04,WSW,246,0.0,11.0,8,0.00,,,0.00,WUHU216DAVISVP2,2013-04-17 22:54:00,
2013-04-17 15:59:00,63.2,0.5,30.04,WSW,247,0.0,11.0,8,0.00,,,0.00,WUHU216DAVISVP2,2013-04-17 22:59:00,
2013-04-17 16:04:00,63.4,0.7,30.04,WSW,246,3.0,10.0,8,0.00,,,0.00,WUHU216DAVISVP2,2013-04-17 23:04:00,
2013-04-17 16:09:00,63.9,1.1,30.04,SSW,213,0.0,9.0,8,0.00,,,0.00,WUHU216DAVISVP2,2013-04-17 23:09:00,
2013-04-17 16:15:00,64.6,1.8,30.04,SSW,213,4.0,9.0,8,0.00,,,0.00,WUHU216DAVISVP2,2013-04-17 23:15:00,
2013-04-17 16:20:00,65.2,2.3,30.03,SW,229,0.0,6.0,8,0.00,,,0.00,WUHU216DAVISVP2,2013-04-17 23:20:00,
2013-04-17 16:25:00,65.4,-0.6,30.04,SSE,165,0.0,6.0,7,0.00,,,0.00,WUHU216DAVISVP2,2013-04-17 23:25:00,
2013-04-17 16:30:00,65.2,-0.8,30.04,SSW,194,0.0,5.0,7,0.00,,,0.00,WUHU216DAVISVP2,2013-04-17 23:30:00,
2013-04-17 16:35:00,64.7,-1.1,30.04,SSW,205,0.0,6.0,7,0.00,,,0.00,WUHU216DAVISVP2,2013-04-17 23:35:00,
2013-04-17 16:40:00,64.5,1.5,30.04,SSW,205,0.0,6.0,8,0.00,,,0.00,WUHU216DAVISVP2,2013-04-17 23:40:00,
2013-04-17 16:45:00,64.8,-1.1,30.03,SSE,167,5.0,6.0,7,0.00,,,0.00,WUHU216DAVISVP2,2013-04-17 23:45:00,
2013-04-17 16:50:00,64.5,1.8,30.04,WSW,239,6.0,8.0,8,0.00,,,0.00,WUHU216DAVISVP2,2013-04-17 23:50:00,
2013-04-17 16:55:00,64.3,1.6,30.03,WSW,248,2.0,11.0,8,0.00,,,0.00,WUHU216DAVISVP2,2013-04-17 23:55:00,
2013-04-17 17:00:00,64.2,1.5,30.03,NW,321,7.0,11.0,8,0.00,,,0.00,WUHU216DAVISVP2,2013-04-18 00:00:00,
2013-04-17 17:05:00,63.9,1.1,30.04,NW,321,0.0,11.0,8,0.00,,,0.00,WUHU216DAVISVP2,2013-04-18 00:05:00,
2013-04-17 17:10:00,64.4,1.4,30.03,North,349,5.0,10.0,8,0.00,,,0.00,WUHU216DAVISVP2,2013-04-18 00:10:00,
2013-04-17 17:15:00,64.1,1.2,30.03,North,355,5.0,10.0,8,0.00,,,0.00,WUHU216DAVISVP2,2013-04-18 00:15:00,
2013-04-17 17:20:00,63.9,1.1,30.03,NNW,348,0.0,10.0,8,0.00,,,0.00,WUHU216DAVISVP2,2013-04-18 00:20:00,
2013-04-17 17:26:00,64.1,1.2,30.03,NNW,348,1.0,10.0,8,0.00,,,0.00,WUHU216DAVISVP2,2013-04-18 00:26:00,
2013-04-17 17:31:00,64.5,1.5,30.03,NNW,348,2.0,10.0,8,0.00,,,0.00,WUHU216DAVISVP2,2013-04-18 00:31:00,
2013-04-17 17:36:00,64.5,1.5,30.03,SE,138,0.0,8.0,8,0.00,,,0.00,WUHU216DAVISVP2,2013-04-18 00:36:00,
2013-04-17 17:41:00,64.8,4.3,30.03,West,271,5.0,6.0,9,0.00,,,0.00,WUHU216DAVISVP2,2013-04-18 00:41:00,
2013-04-17 17:46:00,64.0,13.7,30.03,SSW,208,9.0,11.0,14,0.00,,,0.00,WUHU216DAVISVP2,2013-04-18 00:46:00,
2013-04-17 17:51:00,63.5,13.3,30.03,WSW,237,12.0,18.0,14,0.00,,,0.00,WUHU216DAVISVP2,2013-04-18 00:51:00,
2013-04-17 17:56:00,63.3,16.3,30.03,WSW,249,9.0,18.0,16,0.00,,,0.00,WUHU216DAVISVP2,2013-04-18 00:56:00,
2013-04-17 18:01:00,63.2,16.2,30.03,WSW,244,13.0,18.0,16,0.00,,,0.00,WUHU216DAVISVP2,2013-04-18 01:01:00,
2013-04-17 18:06:00,62.9,15.9,30.03,WSW,239,14.0,18.0,16,0.00,,,0.00,WUHU216DAVISVP2,2013-04-18 01:06:00,
2013-04-17 18:11:00,62.6,15.7,30.03,SW,236,11.0,17.0,16,0.00,,,0.00,WUHU216DAVISVP2,2013-04-18 01:11:00,
2013-04-17 18:16:00,62.5,15.6,30.03,WSW,247,12.0,17.0,16,0.00,,,0.00,WUHU216DAVISVP2,2013-04-18 01:16:00,
2013-04-17 18:22:00,62.4,15.5,30.03,WSW,246,7.0,17.0,16,0.00,,,0.00,WUHU216DAVISVP2,2013-04-18 01:22:00,
2013-04-17 18:27:00,62.2,15.4,30.03,WSW,238,12.0,17.0,16,0.00,,,0.00,WUHU216DAVISVP2,2013-04-18 01:27:00,
2013-04-17 18:32:00,62.1,15.3,30.03,SW,236,13.0,17.0,16,0.00,,,0.00,WUHU216DAVISVP2,2013-04-18 01:32:00,
2013-04-17 18:37:00,61.6,16.3,30.03,WSW,238,9.0,19.0,17,0.00,,,0.00,WUHU216DAVISVP2,2013-04-18 01:37:00,
2013-04-17 18:42:00,61.1,15.9,30.03,SW,224,12.0,22.0,17,0.00,,,0.00,WUHU216DAVISVP2,2013-04-18 01:42:00,
2013-04-17 18:47:00,60.8,17.0,30.03,SW,231,15.0,22.0,18,0.00,,,0.00,WUHU216DAVISVP2,2013-04-18 01:47:00,
2013-04-17 18:52:00,60.3,16.5,30.03,WSW,237,12.0,22.0,18,0.00,,,0.00,WUHU216DAVISVP2,2013-04-18 01:52:00,
2013-04-17 18:57:00,60.2,16.5,30.03,SW,233,15.0,21.0,18,0.00,,,0.00,WUHU216DAVISVP2,2013-04-18 01:57:00,
2013-04-17 19:02:00,59.6,17.2,30.03,WSW,244,14.0,21.0,19,0.00,,,0.00,WUHU216DAVISVP2,2013-04-18 02:02:00,
2013-04-17 19:07:00,59.1,16.8,30.04,SW,229,10.0,20.0,19,0.00,,,0.00,WUHU216DAVISVP2,2013-04-18 02:07:00,
2013-04-17 19:12:00,58.9,16.6,30.04,WSW,248,11.0,19.0,19,0.00,,,0.00,WUHU216DAVISVP2,2013-04-18 02:12:00,
2013-04-17 19:18:00,58.5,17.5,30.04,SW,235,11.0,20.0,20,0.00,,,0.00,WUHU216DAVISVP2,2013-04-18 02:18:00,
2013-04-17 19:23:00,58.0,17.1,30.04,SW,236,19.0,20.0,20,0.00,,,0.00,WUHU216DAVISVP2,2013-04-18 02:23:00,
2013-04-17 19:28:00,57.7,16.8,30.05,WSW,249,14.0,22.0,20,0.00,,,0.00,WUHU216DAVISVP2,2013-04-18 02:28:00,
2013-04-17 19:33:00,57.6,16.7,30.05,SSW,211,9.0,22.0,20,0.00,,,0.00,WUHU216DAVISVP2,2013-04-18 02:33:00,
2013-04-17 19:38:00,57.4,16.6,30.05,SW,234,10.0,22.0,20,0.00,,,0.00,WUHU216DAVISVP2,2013-04-18 02:38:00,
2013-04-17 19:43:00,57.2,17.5,30.05,SW,216,5.0,22.0,21,0.00,,,0.00,WUHU216DAVISVP2,2013-04-18 02:43:00,
2013-04-17 19:48:00,57.0,17.3,30.06,SSW,212,4.0,15.0,21,0.00,,,0.00,WUHU216DAVISVP2,2013-04-18 02:48:00,
2013-04-17 19:53:00,56.8,17.2,30.07,SW,227,2.0,15.0,21,0.00,,,0.00,WUHU216DAVISVP2,2013-04-18 02:53:00,
2013-04-17 19:58:00,56.5,16.9,30.07,SW,229,3.0,13.0,21,0.00,,,0.00,WUHU216DAVISVP2,2013-04-18 02:58:00,
2013-04-17 20:03:00,56.3,16.8,30.07,ENE,65,0.0,9.0,21,0.00,,,0.00,WUHU216DAVISVP2,2013-04-18 03:03:00,
2013-04-17 20:08:00,56.2,16.7,30.07,ENE,65,0.0,4.0,21,0.00,,,0.00,WUHU216DAVISVP2,2013-04-18 03:08:00,
2013-04-17 20:13:00,55.9,16.4,30.07,NW,304,3.0,5.0,21,0.00,,,0.00,WUHU216DAVISVP2,2013-04-18 03:13:00,
2013-04-17 20:18:00,55.7,16.3,30.07,NW,317,1.0,5.0,21,0.00,,,0.00,WUHU216DAVISVP2,2013-04-18 03:18:00,
2013-04-17 20:24:00,55.7,16.3,30.08,SW,225,5.0,6.0,21,0.00,,,0.00,WUHU216DAVISVP2,2013-04-18 03:24:00,
2013-04-17 20:29:00,56.2,16.7,30.08,WNW,300,6.0,10.0,21,0.00,,,0.00,WUHU216DAVISVP2,2013-04-18 03:29:00,
2013-04-17 20:34:00,56.5,16.9,30.08,SSW,213,15.0,15.0,21,0.00,,,0.00,WUHU216DAVISVP2,2013-04-18 03:34:00,
2013-04-17 20:39:00,55.6,16.2,30.09,SW,225,17.0,18.0,21,0.00,,,0.00,WUHU216DAVISVP2,2013-04-18 03:39:00,
2013-04-17 20:44:00,55.3,17.0,30.09,WSW,237,11.0,18.0,22,0.00,,,0.00,WUHU216DAVISVP2,2013-04-18 03:44:00,
2013-04-17 20:49:00,55.4,17.1,30.10,WSW,250,8.0,18.0,22,0.00,,,0.00,WUHU216DAVISVP2,2013-04-18 03:49:00,
2013-04-17 20:54:00,55.6,16.2,30.10,WSW,246,11.0,18.0,21,0.00,,,0.00,WUHU216DAVISVP2,2013-04-18 03:54:00,
2013-04-17 20:59:00,55.5,16.1,30.10,SW,225,13.0,18.0,21,0.00,,,0.00,WUHU216DAVISVP2,2013-04-18 03:59:00,
2013-04-17 21:04:00,55.1,16.9,30.10,WSW,245,13.0,15.0,22,0.00,,,0.00,WUHU216DAVISVP2,2013-04-18 04:04:00,
2013-04-17 21:09:00,55.1,16.9,30.10,West,259,7.0,16.0,22,0.00,,,0.00,WUHU216DAVISVP2,2013-04-18 04:09:00,
2013-04-17 21:14:00,55.3,15.9,30.11,WSW,242,9.0,16.0,21,0.00,,,0.00,WUHU216DAVISVP2,2013-04-18 04:14:00,
2013-04-17 21:19:00,54.8,16.6,30.11,WSW,249,7.0,16.0,22,0.00,,,0.00,WUHU216DAVISVP2,2013-04-18 04:19:00,
2013-04-17 21:25:00,54.4,16.2,30.12,WSW,244,11.0,15.0,22,0.00,,,0.00,WUHU216DAVISVP2,2013-04-18 04:25:00,
2013-04-17 21:30:00,54.2,16.1,30.12,SW,215,8.0,16.0,22,0.00,,,0.00,WUHU216DAVISVP2,2013-04-18 04:30:00,
2013-04-17 21:35:00,54.3,16.1,30.13,WSW,256,2.0,16.0,22,0.00,,,0.00,WUHU216DAVISVP2,2013-04-18 04:35:00,
2013-04-17 21:40:00,53.7,16.6,30.13,West,278,2.0,16.0,23,0.00,,,0.00,WUHU216DAVISVP2,2013-04-18 04:40:00,
2013-04-17 21:45:00,53.1,16.2,30.13,North,355,1.0,16.0,23,0.00,,,0.00,WUHU216DAVISVP2,2013-04-18 04:45:00,
2013-04-17 21:50:00,52.5,15.7,30.13,North,355,4.0,11.0,23,0.00,,,0.00,WUHU216DAVISVP2,2013-04-18 04:50:00,
2013-04-17 21:55:00,52.0,16.3,30.13,North,355,1.0,6.0,24,0.00,,,0.00,WUHU216DAVISVP2,2013-04-18 04:55:00,
2013-04-17 22:00:00,51.6,15.8,30.14,North,355,6.0,7.0,24,0.00,,,0.00,WUHU216DAVISVP2,2013-04-18 05:00:00,
2013-04-17 22:05:00,51.0,15.3,30.14,North,5,6.0,9.0,24,0.00,,,0.00,WUHU216DAVISVP2,2013-04-18 05:05:00,
2013-04-17 22:10:00,50.6,15.0,30.14,North,5,8.0,9.0,24,0.00,,,0.00,WUHU216DAVISVP2,2013-04-18 05:10:00,
2013-04-17 22:15:00,50.4,14.8,30.14,North,5,4.0,10.0,24,0.00,,,0.00,WUHU216DAVISVP2,2013-04-18 05:15:00,
2013-04-17 22:20:00,50.1,14.5,30.14,North,5,6.0,10.0,24,0.00,,,0.00,WUHU216DAVISVP2,2013-04-18 05:20:00,
2013-04-17 22:25:00,49.8,15.3,30.14,North,5,7.0,10.0,25,0.00,,,0.00,WUHU216DAVISVP2,2013-04-18 05:25:00,
2013-04-17 22:31:00,50.1,15.6,30.14,NNW,338,9.0,11.0,25,0.00,,,0.00,WUHU216DAVISVP2,2013-04-18 05:31:00,
2013-04-17 22:36:00,50.1,14.7,30.14,NNW,336,6.0,11.0,24,0.00,,,0.00,WUHU216DAVISVP2,2013-04-18 05:36:00,
2013-04-17 22:41:00,49.2,11.9,30.15,North,355,8.0,11.0,22,0.00,,,0.00,WUHU216DAVISVP2,2013-04-18 05:41:00,
2013-04-17 22:46:00,48.5,10.2,30.15,North,355,7.0,11.0,21,0.00,,,0.00,WUHU216DAVISVP2,2013-04-18 05:46:00,
2013-04-17 22:51:00,47.8,9.6,30.15,North,349,6.0,10.0,21,0.00,,,0.00,WUHU216DAVISVP2,2013-04-18 05:51:00,
2013-04-17 22:56:00,47.4,10.3,30.15,North,349,6.0,10.0,22,0.00,,,0.00,WUHU216DAVISVP2,2013-04-18 05:56:00,
2013-04-17 23:01:00,46.3,10.4,30.15,North,349,5.0,10.0,23,0.00,,,0.00,WUHU216DAVISVP2,2013-04-18 06:01:00,
2013-04-17 23:06:00,46.2,12.3,30.15,North,5,4.0,10.0,25,0.00,,,0.00,WUHU216DAVISVP2,2013-04-18 06:06:00,
2013-04-17 23:11:00,47.1,10.1,30.15,NNW,339,9.0,9.0,22,0.00,,,0.00,WUHU216DAVISVP2,2013-04-18 06:11:00,
2013-04-17 23:17:00,46.5,10.6,30.16,North,355,10.0,12.0,23,0.00,,,0.00,WUHU216DAVISVP2,2013-04-18 06:17:00,
2013-04-17 23:22:00,46.1,10.2,30.16,North,5,4.0,12.0,23,0.00,,,0.00,WUHU216DAVISVP2,2013-04-18 06:22:00,
2013-04-17 23:27:00,46.1,9.2,30.17,North,5,4.0,12.0,22,0.00,,,0.00,WUHU216DAVISVP2,2013-04-18 06:27:00,
2013-04-17 23:32:00,46.5,8.6,30.17,North,5,1.0,12.0,21,0.00,,,0.00,WUHU216DAVISVP2,2013-04-18 06:32:00,
2013-04-17 23:37:00,47.2,9.1,30.17,North,5,2.0,7.0,21,0.00,,,0.00,WUHU216DAVISVP2,2013-04-18 06:37:00,
2013-04-17 23:42:00,47.9,7.5,30.17,North,5,0.0,5.0,19,0.00,,,0.00,WUHU216DAVISVP2,2013-04-18 06:42:00,
2013-04-17 23:47:00,48.6,6.9,30.17,North,5,5.0,5.0,18,0.00,,,0.00,WUHU216DAVISVP2,2013-04-18 06:47:00,
2013-04-17 23:52:00,50.5,5.9,30.17,NNE,13,4.0,10.0,16,0.00,,,0.00,WUHU216DAVISVP2,2013-04-18 06:52:00,
2013-04-17 23:57:00,51.0,4.9,30.18,NW,324,7.0,10.0,15,0.00,,,0.00,WUHU216DAVISVP2,2013-04-18 06:57:00,